QPF
0.00 0.00 0.00 0.00 0.00 0.01 0.00 0.00 0.00 0.00 0.00 0.00 0.01 0.01 0.01 0.01 0.01 0.03 0.00 0.02 0.06 0.02 0.03 0.04 0.03 0.01 0.00 0.00 0.01 0.01 0.00 0.00 0.04 0.02 0.00 0.03 0.07 0.07 0.02 0.00 0.00 0.00 0.00
0.00 0.00 0.00 0.00 0.00 0.00 0.00 0.00 0.00 0.00 0.00 0.00 0.00 0.01 0.01 0.01 0.03 0.02 0.00 0.00 0.03 0.00 0.00 0.05 0.04 0.00 0.02 0.00 0.00 0.01 0.01 0.00 0.01 0.07 0.04 0.06 0.09 0.09 0.01 0.00 0.00 0.00 0.01
0.00 0.00 0.00 0.00 0.00 0.00 0.00 0.00 0.00 0.02 0.03 0.01 0.01 0.00 0.00 0.00 0.01 0.01 0.00 0.00 0.02 0.01 0.01 0.02 0.01 0.04 0.03 0.01 0.03 0.03 0.03 0.04 0.04 0.09 0.05 0.04 0.09 0.02 0.00 0.00 0.00 0.00 0.01
0.00 0.00 0.00 0.00 0.00 0.00 0.00 0.00 0.00 0.01 0.04 0.03 0.03 0.03 0.01 0.00 0.00 0.00 0.00 0.00 0.00 0.00 0.01 0.02 0.02 0.04 0.05 0.03 0.02 0.03 0.03 0.04 0.05 0.06 0.01 0.05 0.15 0.13 0.01 0.00 0.00 0.00 0.00
0.00 0.00 0.00 0.00 0.00 0.01 0.01 0.01 0.01 0.05 0.08 0.04 0.05 0.04 0.03 0.03 0.00 0.00 0.01 0.02 0.01 0.00 0.01 0.02 0.00 0.02 0.05 0.04 0.00 0.03 0.05 0.03 0.02 0.05 0.04 0.11 0.17 0.13 0.09 0.05 0.01 0.01 0.01
0.01 0.00 0.03 0.07 0.09 0.08 0.07 0.10 0.14 0.12 0.11 0.08 0.05 0.03 0.03 0.00 0.01 0.05 0.01 0.00 0.01 0.02 0.02 0.03 0.01 0.01 0.00 0.00 0.01 0.01 0.02 0.03 0.05 0.10 0.07 0.09 0.11 0.09 0.11 0.11 0.01 0.08 0.02
0.00 0.02 0.01 0.02 0.03 0.03 0.07 0.08 0.17 0.17 0.18 0.17 0.14 0.12 0.11 0.10 0.10 0.27 0.06 0.00 0.01 0.02 0.04 0.05 0.02 0.00 0.00 0.03 0.03 0.01 0.00 0.00 0.00 0.01 0.00 0.04 0.10 0.10 0.08 0.06 0.03 0.03 0.01
0.00 0.01 0.01 0.02 0.01 0.01 0.02 0.02 0.06 0.07 0.09 0.10 0.08 0.08 0.08 0.08 0.06 0.17 0.15 0.03 0.02 0.01 0.01 0.04 0.05 0.02 0.03 0.08 0.06 0.04 0.05 0.04 0.01 0.00 0.00 0.00 0.00 0.04 0.05 0.04 0.07 0.05 0.02
0.00 0.00 0.00 0.00 0.00 0.00 0.01 0.02 0.04 0.03 0.02 0.03 0.03 0.05 0.04 0.05 0.18 0.27 0.26 0.14 0.12 0.06 0.02 0.01 0.03 0.03 0.03 0.02 0.04 0.05 0.05 0.04 0.01 0.04 0.05 0.01 0.00 0.00 0.03 0.06 0.04 0.05 0.01
0.00 0.00 0.00 0.00 0.00 0.00 0.01 0.01 0.01 0.02 0.02 0.02 0.01 0.01 0.03 0.04 0.10 0.16 0.12 0.12 0.10 0.08 0.04 0.03 0.03 0.01 0.04 0.02 0.02 0.04 0.01 0.02 0.04 0.01 0.05 0.04 0.02 0.01 0.04 0.06 0.05 0.04 0.03
0.00 0.00 0.00 0.00 0.00 0.00 0.01 0.01 0.01 0.01 0.01 0.00 0.00 0.01 0.04 0.05 0.03 0.09 0.20 0.15 0.12 0.11 0.09 0.12 0.12 0.04 0.00 0.02 0.08 0.05 0.06 0.06 0.08 0.03 0.03 0.05 0.08 0.08 0.10 0.15 0.11 0.15 0.11
0.00 0.00 0.00 0.00 0.00 0.00 0.01 0.01 0.01 0.00 0.00 0.00 0.00 0.02 0.00 0.00 0.00 0.00 0.10 0.16 0.10 0.09 0.12 0.11 0.13 0.10 0.12 0.07 0.02 0.03 0.05 0.03 0.01 0.01 0.03 0.02 0.06 0.13 0.15 0.20 0.19 0.20 0.20
0.00 0.00 0.00 0.00 0.00 0.00 0.00 0.00 0.00 0.00 0.00 0.00 0.00 0.01 0.00 0.00 0.00 0.01 0.02 0.01 0.00 0.01 0.01 0.08 0.09 0.04 0.01 0.02 0.01 0.00 0.00 0.00 0.00 0.00 0.01 0.01 0.03 0.05 0.08 0.10 0.11 0.13 0.12
0.00 0.00 0.00 0.00 0.00 0.00 0.00 0.00 0.00 0.00 0.00 0.00 0.00 0.00 0.00 0.00 0.00 0.00 0.00 0.00 0.00 0.00 0.00 0.00 0.00 0.00 0.00 0.00 0.00 0.00 0.00 0.00 0.00 0.01 0.01 0.01 0.00 0.00 0.00 0.01 0.01 0.03 0.07
0.00 0.00 0.00 0.00 0.00 0.00 0.00 0.00 0.00 0.00 0.00 0.00 0.00 0.00 0.00 0.00 0.00 0.00 0.00 0.00 0.00 0.00 0.00 0.00 0.00 0.00 0.00 0.00 0.00 0.00 0.00 0.00 0.00 0.00 0.00 0.00 0.00 0.00 0.00 0.00 0.00 0.00 0.01
0.00 0.00 0.00 0.00 0.00 0.00 0.00 0.00 0.00 0.00 0.00 0.00 0.00 0.00 0.00 0.00 0.00 0.00 0.00 0.00 0.00 0.00 0.00 0.00 0.00 0.00 0.00 0.00 0.00 0.00 0.00 0.00 0.00 0.00 0.00 0.00 0.00 0.00 0.00 0.00 0.00 0.00 0.00
0.00 0.00 0.00 0.00 0.00 0.00 0.00 0.00 0.00 0.00 0.00 0.00 0.00 0.00 0.00 0.00 0.00 0.00 0.00 0.00 0.00 0.00 0.00 0.00 0.00 0.00 0.00 0.00 0.00 0.00 0.00 0.00 0.00 0.00 0.00 0.00 0.00 0.00 0.00 0.00 0.00 0.00 0.00
0.00 0.00 0.00 0.00 0.00 0.00 0.00 0.00 0.00 0.00 0.00 0.00 0.00 0.00 0.00 0.00 0.00 0.00 0.00 0.00 0.00 0.00 0.00 0.00 0.00 0.00 0.00 0.00 0.00 0.00 0.00 0.00 0.00 0.00 0.00 0.00 0.00 0.00 0.00 0.00 0.00 0.00 0.00
0.00 0.00 0.00 0.00 0.00 0.00 0.00 0.00 0.00 0.00 0.00 0.00 0.00 0.00 0.00 0.00 0.00 0.00 0.00 0.00 0.00 0.00 0.00 0.00 0.00 0.00 0.00 0.00 0.00 0.00 0.00 0.00 0.00 0.00 0.00 0.00 0.00 0.00 0.00 0.00 0.00 0.00 0.00
0.01 0.00 0.00 0.00 0.00 0.00 0.00 0.00 0.00 0.00 0.00 0.00 0.00 0.00 0.00 0.00 0.00 0.00 0.00 0.00 0.00 0.00 0.00 0.00 0.00 0.00 0.00 0.00 0.00 0.00 0.00 0.00 0.00 0.00 0.00 0.00 0.00 0.00 0.00 0.00 0.00 0.00 0.00
0.02 0.01 0.00 0.00 0.00 0.00 0.00 0.00 0.00 0.00 0.00 0.00 0.00 0.00 0.00 0.00 0.00 0.00 0.00 0.00 0.00 0.00 0.00 0.01 0.01 0.03 0.02 0.00 0.00 0.00 0.00 0.00 0.00 0.00 0.00 0.00 0.00 0.00 0.00 0.00 0.00 0.00 0.00
0.00 0.02 0.01 0.00 0.00 0.00 0.00 0.00 0.00 0.00 0.00 0.00 0.00 0.00 0.00 0.00 0.00 0.00 0.00 0.00 0.00 0.00 0.00 0.00 0.01 0.02 0.00 0.00 0.00 0.00 0.00 0.00 0.00 0.00 0.00 0.00 0.00 0.00 0.00 0.00 0.00 0.00 0.00
0.00 0.06 0.10 0.02 0.00 0.00 0.00 0.00 0.00 0.00 0.00 0.00 0.00 0.00 0.00 0.00 0.00 0.00 0.00 0.00 0.00 0.00 0.00 0.00 0.00 0.00 0.00 0.00 0.00 0.00 0.00 0.00 0.00 0.00 0.00 0.00 0.00 0.00 0.00 0.00 0.00 0.00 0.00
0.06 0.18 0.14 0.07 0.03 0.00 0.00 0.00 0.00 0.00 0.00 0.00 0.00 0.00 0.00 0.00 0.00 0.00 0.00 0.00 0.00 0.00 0.00 0.00 0.00 0.00 0.00 0.00 0.00 0.00 0.00 0.00 0.00 0.00 0.00 0.00 0.00 0.00 0.00 0.00 0.00 0.00 0.00
0.06 0.14 0.06 0.02 0.03 0.00 0.00 0.00 0.00 0.00 0.00 0.00 0.00 0.00 0.00 0.00 0.00 0.00 0.00 0.00 0.00 0.00 0.00 0.00 0.00 0.00 0.00 0.00 0.00 0.00 0.00 0.00 0.00 0.00 0.00 0.00 0.00 0.00 0.00 0.00 0.00 0.00 0.00
0.00 0.13 0.07 0.02 0.01 0.00 0.00 0.00 0.00 0.00 0.00 0.00 0.00 0.00 0.00 0.00 0.00 0.00 0.00 0.00 0.00 0.00 0.00 0.00 0.00 0.00 0.00 0.00 0.00 0.00 0.00 0.00 0.00 0.00 0.00 0.00 0.00 0.00 0.00 0.00 0.00 0.00 0.00
MSLP
1010.36 1010.88 1011.23 1011.79 1012.32 1012.87 1013.07 1012.87 1012.96 1013.14 1012.97 1012.81 1014.23 1014.75 1014.43 1013.73 1014.25 1014.78 1015.03 1015.19 1015.45 1015.48 1015.46 1015.49 1015.57 1015.53 1015.42 1015.35 1015.34 1015.50 1015.56 1015.15 1015.66 1015.64 1015.30 1015.73 1016.02 1016.23 1016.49 1017.05 1017.56 1017.80 1018.36
1009.37 1010.08 1010.54 1010.96 1011.51 1011.91 1012.37 1012.54 1012.64 1012.82 1012.87 1012.80 1012.82 1013.08 1013.34 1013.79 1014.10 1014.52 1014.76 1014.64 1014.84 1015.08 1015.08 1015.17 1015.24 1015.19 1015.10 1015.11 1015.05 1015.19 1015.01 1014.76 1015.13 1015.68 1015.58 1015.57 1015.57 1015.76 1016.10 1016.72 1016.95 1016.90 1017.77
1008.68 1009.40 1009.82 1010.33 1010.73 1011.07 1011.45 1011.77 1012.09 1012.40 1012.70 1012.81 1012.93 1013.21 1013.53 1013.76 1013.89 1014.05 1014.32 1014.46 1014.59 1014.58 1014.59 1014.68 1014.85 1014.98 1015.03 1014.98 1015.11 1015.05 1015.04 1014.96 1015.12 1015.35 1015.32 1014.75 1015.11 1015.65 1016.06 1016.30 1016.73 1017.12 1017.45
1007.97 1008.62 1009.24 1009.63 1010.02 1010.35 1010.64 1011.21 1011.46 1011.72 1012.19 1012.59 1012.87 1013.02 1013.30 1013.44 1013.57 1013.66 1013.85 1014.02 1014.16 1014.30 1014.30 1014.30 1014.46 1014.61 1014.73 1014.87 1014.88 1014.95 1014.83 1015.05 1015.01 1015.05 1015.09 1014.84 1015.05 1015.54 1016.05 1016.41 1016.76 1016.91 1017.11
1007.39 1008.07 1008.61 1009.05 1009.41 1009.87 1010.19 1010.48 1010.92 1011.29 1011.82 1012.23 1012.57 1012.82 1012.97 1013.07 1013.16 1013.24 1013.31 1013.54 1013.73 1013.81 1013.90 1014.01 1014.04 1014.03 1014.19 1014.35 1014.42 1014.49 1014.64 1014.81 1014.91 1014.98 1015.04 1014.98 1015.38 1015.59 1015.78 1016.05 1016.31 1016.64 1016.90
1007.14 1007.75 1008.25 1008.75 1009.27 1009.67 1009.96 1010.36 1010.72 1011.15 1011.48 1011.86 1012.16 1012.37 1012.57 1012.57 1012.48 1012.48 1012.60 1012.87 1013.02 1013.26 1013.49 1013.73 1013.66 1013.67 1013.73 1013.86 1014.09 1014.09 1014.32 1014.72 1014.92 1015.09 1014.98 1014.99 1015.02 1015.04 1015.20 1015.44 1015.62 1016.17 1016.69
1007.09 1007.75 1008.11 1008.63 1009.16 1009.58 1009.95 1010.49 1011.01 1011.41 1011.60 1011.87 1011.98 1012.07 1011.98 1012.17 1012.39 1012.50 1012.75 1012.60 1012.42 1012.61 1012.98 1013.32 1013.57 1013.35 1013.14 1013.20 1013.41 1013.68 1013.76 1013.87 1014.07 1014.33 1014.54 1014.30 1014.28 1014.36 1014.58 1014.70 1015.00 1015.42 1015.35
1007.04 1007.63 1008.19 1008.68 1009.02 1009.51 1010.03 1010.52 1010.73 1011.02 1011.41 1011.56 1011.70 1011.66 1012.04 1012.07 1012.25 1012.23 1012.62 1012.56 1012.24 1012.19 1012.44 1012.77 1013.18 1013.30 1013.14 1013.24 1013.33 1013.38 1013.37 1013.29 1013.32 1013.59 1013.61 1013.21 1013.06 1013.07 1013.27 1013.59 1014.01 1014.47 1014.82
1006.75 1007.43 1007.93 1008.48 1008.94 1009.37 1009.88 1010.21 1010.70 1011.06 1011.21 1011.41 1011.48 1011.56 1011.75 1011.87 1012.02 1012.04 1012.51 1012.40 1012.32 1012.27 1012.44 1012.39 1012.53 1012.81 1012.83 1012.81 1013.01 1013.08 1012.88 1012.62 1012.18 1012.46 1012.51 1012.24 1012.33 1012.18 1012.34 1013.02 1013.39 1014.08 1014.05
1006.42 1007.04 1007.60 1008.10 1008.82 1009.32 1009.77 1010.10 1010.42 1010.72 1010.97 1011.19 1011.31 1011.36 1011.47 1011.59 1011.79 1011.95 1012.16 1012.20 1012.10 1012.23 1012.11 1012.10 1012.15 1012.28 1012.62 1012.85 1012.92 1012.88 1012.77 1012.37 1012.23 1012.04 1012.14 1012.26 1012.10 1011.98 1012.44 1012.65 1012.55 1012.96 1013.08
1006.06 1006.75 1007.38 1007.92 1008.53 1009.02 1009.59 1010.01 1010.39 1010.67 1010.79 1010.99 1011.04 1011.10 1011.31 1011.61 1011.93 1012.07 1012.30 1012.24 1011.86 1011.96 1011.94 1012.20 1012.52 1012.74 1012.92 1013.07 1013.22 1013.19 1012.90 1013.00 1012.55 1012.31 1012.08 1011.80 1011.65 1011.58 1011.71 1011.82 1011.78 1011.87 1012.08
1005.96 1006.76 1007.39 1007.91 1008.42 1009.00 1009.54 1010.01 1010.41 1010.84 1011.11 1011.05 1010.96 1011.02 1011.63 1011.94 1012.24 1012.26 1012.30 1012.38 1012.33 1012.08 1011.73 1011.92 1012.90 1013.05 1013.06 1013.10 1013.21 1013.19 1013.17 1013.03 1012.75 1012.29 1011.97 1011.63 1011.49 1011.25 1011.10 1011.07 1010.82 1011.42 1011.24
1006.27 1006.99 1007.72 1008.32 1008.60 1009.12 1009.61 1010.05 1010.52 1010.87 1010.93 1010.72 1010.66 1011.22 1011.88 1012.16 1012.24 1012.22 1012.36 1012.32 1012.32 1012.24 1012.03 1012.50 1012.63 1012.69 1012.85 1012.92 1013.09 1013.01 1012.89 1012.84 1012.55 1012.34 1012.05 1011.78 1011.56 1011.81 1011.72 1011.68 1011.73 1011.92 1012.01
1006.27 1007.05 1007.66 1008.16 1008.46 1008.84 1009.43 1009.76 1010.42 1010.50 1010.71 1010.61 1011.07 1011.27 1011.67 1011.87 1011.75 1012.00 1012.26 1012.30 1012.10 1012.18 1012.06 1012.12 1012.31 1012.53 1012.65 1012.83 1012.85 1012.86 1012.99 1013.20 1013.19 1013.04 1012.79 1012.65 1012.50 1012.46 1012.44 1012.53 1012.47 1012.45 1012.42
1006.32 1006.93 1007.66 1008.17 1008.75 1009.26 1010.31 1010.79 1010.94 1011.72 1012.02 1011.74 1011.82 1011.97 1012.05 1011.91 1012.57 1012.76 1012.56 1012.44 1012.51 1012.50 1012.12 1011.84 1011.95 1012.15 1012.43 1012.73 1013.09 1013.40 1013.71 1013.72 1013.59 1013.55 1013.47 1013.43 1013.37 1013.32 1013.28 1013.17 1013.01 1012.90 1012.83
1006.08 1006.71 1007.31 1007.63 1008.47 1009.01 1010.10 1011.11 1011.60 1011.93 1012.16 1012.28 1012.43 1012.79 1012.66 1012.74 1013.06 1012.80 1012.82 1012.82 1012.87 1012.70 1012.42 1011.91 1012.08 1012.24 1012.59 1013.08 1013.50 1013.78 1014.02 1014.09 1014.12 1014.10 1014.02 1013.98 1013.92 1013.91 1013.78 1013.51 1013.38 1013.36 1013.38
1005.56 1005.89 1006.31 1007.04 1007.44 1008.14 1009.01 1009.80 1010.87 1012.13 1012.26 1012.44 1012.55 1012.71 1012.81 1012.88 1012.94 1013.11 1013.07 1012.96 1012.83 1012.81 1012.54 1011.91 1012.01 1012.26 1012.59 1012.98 1013.48 1013.78 1014.00 1014.12 1014.16 1014.24 1014.30 1014.30 1014.34 1014.35 1014.26 1014.15 1013.96 1013.89 1013.94
1006.44 1006.24 1006.31 1006.55 1006.84 1007.42 1008.02 1008.75 1009.36 1010.16 1011.18 1011.86 1012.36 1012.56 1012.77 1012.85 1013.10 1013.13 1013.15 1012.99 1012.45 1012.50 1012.15 1011.59 1011.52 1011.65 1012.00 1012.46 1012.91 1013.32 1013.61 1013.69 1013.97 1014.23 1014.37 1014.47 1014.53 1014.47 1014.54 1014.55 1014.45 1014.47 1014.45
1006.19 1006.53 1006.42 1006.47 1006.56 1007.09 1007.57 1007.94 1008.64 1009.34 1009.85 1010.43 1011.40 1012.47 1012.50 1012.67 1012.86 1012.80 1012.93 1012.90 1012.05 1011.49 1011.28 1011.27 1011.31 1011.47 1011.70 1012.05 1012.52 1013.00 1013.26 1013.52 1013.76 1013.92 1014.01 1014.05 1014.15 1014.31 1014.50 1014.59 1014.63 1014.59 1014.47
1006.59 1006.19 1005.51 1006.51 1006.96 1007.00 1007.43 1007.37 1007.89 1008.69 1009.08 1009.85 1010.30 1010.63 1011.24 1012.12 1012.27 1012.08 1011.73 1011.50 1011.33 1011.01 1010.94 1011.04 1011.02 1011.15 1011.46 1011.92 1012.21 1012.64 1013.00 1013.20 1013.46 1013.62 1013.83 1013.91 1014.09 1014.15 1014.35 1014.52 1014.53 1014.47 1014.67
1006.25 1006.18 1005.33 1006.52 1006.75 1006.74 1007.20 1007.19 1007.35 1007.96 1008.38 1009.37 1009.80 1009.89 1010.31 1010.73 1010.72 1010.76 1010.90 1010.85 1010.81 1010.58 1010.81 1010.79 1010.83 1010.98 1011.38 1011.61 1011.92 1012.30 1012.42 1012.62 1013.01 1012.96 1013.26 1013.60 1013.69 1013.71 1013.79 1013.95 1014.09 1014.24 1014.18
1005.60 1005.87 1006.39 1006.88 1006.53 1006.60 1006.71 1006.91 1007.42 1007.38 1007.47 1008.31 1008.89 1009.62 1009.85 1010.02 1009.97 1009.96 1009.98 1010.07 1010.32 1010.55 1010.54 1010.55 1010.65 1010.73 1010.81 1011.16 1011.40 1011.80 1012.06 1012.34 1012.48 1012.59 1012.76 1012.96 1012.92 1012.92 1012.81 1012.98 1013.21 1013.35 1013.38
1005.54 1006.00 1006.30 1006.47 1006.30 1006.13 1006.40 1006.59 1007.01 1006.97 1006.87 1007.33 1008.10 1008.76 1009.33 1009.26 1009.02 1008.95 1008.86 1009.00 1009.37 1009.90 1010.09 1010.26 1010.31 1010.29 1010.30 1010.52 1010.82 1011.10 1011.28 1011.49 1011.43 1011.71 1011.97 1012.20 1012.23 1012.15 1012.13 1012.07 1012.32 1012.39 1012.41
1005.41 1005.78 1006.47 1006.23 1006.40 1005.25 1005.51 1005.93 1006.31 1006.33 1006.65 1006.58 1006.72 1007.13 1007.52 1007.90 1007.62 1007.41 1007.56 1007.91 1008.63 1009.15 1009.39 1009.74 1009.95 1009.87 1009.96 1010.01 1010.19 1010.37 1010.45 1010.68 1010.64 1010.73 1010.97 1011.31 1011.45 1011.58 1011.33 1011.41 1011.68 1011.74 1011.74
1005.28 1005.63 1006.04 1006.15 1006.05 1004.20 1004.62 1005.04 1005.36 1005.73 1005.97 1006.10 1005.87 1006.19 1006.67 1006.59 1006.61 1006.73 1007.06 1007.32 1007.68 1008.46 1008.87 1009.08 1009.36 1009.55 1009.48 1009.39 1009.79 1009.87 1009.91 1010.02 1010.15 1010.35 1010.22 1010.52 1010.52 1010.59 1010.63 1010.79 1010.85 1010.86 1010.97
1004.16 1004.74 1005.12 1004.68 1004.26 1003.58 1004.10 1004.40 1004.62 1004.75 1005.01 1005.25 1005.16 1005.22 1005.57 1005.71 1005.85 1006.15 1006.37 1006.70 1007.05 1007.57 1007.94 1008.35 1008.57 1008.82 1008.92 1008.76 1008.95 1008.93 1009.49 1009.68 1009.76 1009.86 1009.93 1010.05 1010.22 1010.26 1010.29 1010.18 1010.26 1010.47 1010.47
Thickness
5782 5780 5778 5777 5776 5774 5774 5779 5781 5784 5787 5792 5779 5776 5781 5793 5790 5786 5787 5787 5785 5786 5789 5789 5788 5792 5792 5795 5795 5791 5791 5796 5782 5790 5798 5798 5795 5793 5790 5787 5783 5780 5777
5787 5783 5780 5781 5779 5778 5776 5778 5781 5781 5784 5787 5790 5790 5790 5788 5789 5786 5786 5790 5787 5786 5788 5788 5788 5791 5791 5793 5794 5793 5794 5798 5792 5782 5792 5792 5793 5794 5790 5785 5782 5780 5777
5790 5786 5783 5781 5781 5780 5780 5781 5781 5780 5781 5783 5784 5784 5783 5785 5787 5788 5787 5787 5787 5789 5789 5789 5788 5789 5787 5790 5790 5791 5792 5793 5791 5786 5784 5794 5791 5790 5785 5784 5781 5777 5772
5794 5790 5784 5783 5783 5784 5785 5782 5783 5783 5781 5780 5781 5782 5783 5785 5785 5787 5786 5786 5787 5787 5789 5789 5789 5788 5787 5787 5787 5787 5789 5786 5787 5784 5784 5787 5787 5785 5780 5775 5771 5774 5772
5795 5790 5787 5786 5786 5784 5783 5784 5784 5783 5781 5780 5779 5779 5781 5783 5785 5785 5786 5784 5784 5786 5787 5788 5789 5790 5790 5789 5787 5786 5786 5783 5782 5779 5778 5780 5777 5773 5771 5773 5769 5768 5766
5794 5789 5789 5786 5782 5779 5778 5779 5779 5779 5779 5778 5778 5778 5778 5782 5785 5785 5787 5785 5785 5784 5782 5783 5786 5788 5787 5786 5785 5785 5784 5777 5773 5771 5773 5770 5772 5773 5772 5770 5769 5761 5754
5790 5786 5786 5783 5779 5776 5775 5774 5772 5771 5773 5772 5774 5776 5777 5779 5778 5778 5777 5782 5784 5783 5780 5778 5778 5784 5786 5786 5783 5782 5782 5780 5779 5775 5772 5771 5772 5774 5774 5768 5766 5760 5759
5787 5784 5782 5779 5777 5774 5772 5770 5771 5771 5769 5769 5770 5772 5771 5773 5773 5774 5770 5774 5779 5781 5779 5777 5775 5775 5779 5778 5779 5778 5779 5780 5778 5775 5773 5776 5778 5778 5777 5774 5768 5764 5760
5786 5782 5781 5778 5775 5773 5768 5768 5767 5766 5766 5766 5767 5767 5767 5768 5767 5769 5767 5770 5770 5772 5772 5775 5775 5773 5774 5774 5774 5772 5773 5775 5778 5777 5777 5779 5777 5776 5772 5768 5762 5751 5751
5786 5784 5782 5778 5773 5769 5768 5767 5766 5764 5763 5763 5762 5764 5765 5764 5765 5762 5762 5764 5764 5763 5766 5767 5768 5770 5767 5765 5766 5765 5765 5768 5769 5771 5773 5773 5770 5769 5763 5760 5758 5749 5747
5787 5784 5781 5777 5772 5769 5766 5765 5763 5761 5761 5761 5761 5762 5761 5759 5756 5755 5754 5755 5755 5754 5756 5755 5758 5756 5755 5754 5752 5755 5756 5755 5757 5759 5762 5763 5765 5766 5762 5756 5753 5750 5744
5782 5778 5774 5772 5769 5766 5762 5760 5758 5755 5753 5755 5757 5757 5754 5753 5749 5748 5747 5746 5744 5744 5748 5751 5747 5744 5745 5745 5744 5745 5743 5742 5745 5748 5750 5753 5752 5753 5755 5754 5751 5743 5741
5770 5767 5764 5761 5761 5759 5754 5752 5751 5750 5750 5753 5754 5749 5744 5743 5744 5743 5741 5741 5739 5740 5745 5738 5738 5738 5737 5737 5735 5734 5733 5734 5734 5735 5737 5740 5740 5738 5738 5735 5730 5727 5726
5761 5758 5757 5754 5753 5754 5751 5751 5747 5748 5746 5748 5744 5742 5740 5741 5742 5740 5738 5737 5737 5736 5737 5736 5734 5732 5731 5729 5728 5729 5726 5721 5719 5719 5721 5721 5721 5720 5717 5715 5714 5712 5712
5753 5751 5748 5747 5743 5742 5734 5732 5734 5727 5726 5734 5734 5732 5729 5733 5728 5724 5726 5729 5728 5726 5728 5731 5728 5725 5722 5719 5716 5713 5709 5707 5706 5705 5704 5702 5702 5701 5699 5698 5697 5696 5695
5746 5744 5742 5744 5739 5738 5730 5725 5717 5716 5714 5713 5713 5712 5715 5713 5711 5713 5714 5714 5712 5713 5720 5721 5717 5715 5710 5705 5700 5698 5695 5693 5690 5688 5687 5685 5684 5682 5681 5682 5681 5679 5676
5744 5746 5746 5739 5741 5737 5732 5727 5720 5710 5707 5705 5705 5704 5703 5704 5704 5702 5702 5704 5705 5705 5709 5712 5709 5705 5701 5697 5691 5686 5683 5681 5679 5675 5672 5669 5666 5663 5661 5660 5660 5658 5656
5726 5733 5739 5739 5739 5737 5734 5730 5726 5720 5712 5706 5699 5699 5697 5697 5695 5694 5693 5695 5703 5699 5703 5705 5703 5701 5697 5691 5686 5680 5675 5672 5667 5662 5657 5653 5649 5647 5644 5641 5639 5637 5635
5723 5723 5729 5731 5734 5731 5729 5729 5723 5719 5716 5710 5702 5692 5692 5690 5689 5689 5687 5689 5696 5700 5700 5698 5695 5692 5689 5684 5679 5673 5669 5664 5659 5654 5650 5646 5643 5639 5634 5630 5625 5621 5620
5713 5721 5727 5722 5719 5721 5721 5723 5721 5715 5712 5706 5704 5703 5697 5690 5689 5691 5692 5692 5693 5693 5694 5692 5691 5689 5685 5679 5673 5668 5662 5658 5653 5649 5644 5640 5636 5632 5626 5620 5617 5613 5608
5708 5716 5722 5711 5711 5716 5714 5716 5717 5714 5710 5700 5699 5700 5697 5695 5695 5694 5691 5690 5690 5692 5689 5689 5688 5685 5679 5675 5670 5664 5661 5656 5649 5647 5642 5636 5631 5627 5623 5618 5612 5607 5605
5711 5709 5703 5697 5703 5708 5708 5710 5708 5710 5710 5702 5699 5693 5690 5692 5695 5694 5692 5692 5690 5688 5688 5688 5685 5683 5680 5674 5669 5663 5658 5652 5648 5644 5639 5635 5632 5628 5626 5620 5613 5609 5605
5699 5696 5696 5694 5698 5700 5697 5700 5701 5706 5706 5702 5697 5693 5689 5690 5694 5694 5695 5696 5694 5688 5686 5684 5683 5681 5680 5674 5669 5664 5659 5654 5653 5648 5642 5636 5632 5630 5627 5624 5619 5614 5610
5692 5691 5686 5676 5676 5698 5701 5700 5700 5701 5698 5699 5699 5698 5695 5693 5697 5701 5700 5699 5694 5690 5688 5683 5680 5679 5677 5673 5669 5666 5662 5657 5655 5651 5646 5641 5637 5633 5632 5627 5621 5617 5615
5681 5681 5681 5680 5680 5702 5702 5701 5701 5698 5696 5696 5699 5698 5695 5697 5698 5699 5698 5698 5697 5690 5686 5684 5678 5674 5674 5673 5668 5664 5662 5659 5656 5652 5650 5645 5642 5639 5635 5630 5626 5625 5621
5686 5683 5680 5688 5693 5703 5700 5699 5700 5698 5696 5696 5698 5699 5698 5698 5699 5697 5697 5696 5695 5690 5687 5683 5679 5675 5672 5672 5668 5666 5662 5658 5654 5651 5647 5645 5640 5637 5634 5632 5628 5624 5621